Vienna, OH

2:39 AM EST on February 20, 2017 (GMT -0500)
Youngstown-Warren Regional

Weather History for KYNG - March, 2014

Change the Weather History Date:

Sunday, March 2, 2014

  Actual Average Record
Temperature  
Mean Temperature 17 °F 32 °F  
Max Temperature 25 °F 40 °F 71 °F (1991)
Min Temperature 8 °F 23 °F -10 °F (1980)
Degree Days  
Heating Degree Days 48 33  
Month to date heating degree days 82 66  
Since 1 July heating degree days 5150 4714  
Cooling Degree Days 0 0  
Month to date cooling degree days 0 0  
Year to date cooling degree days 0 0  
Moisture  
Dew Point 9 °F    
Average Humidity 69    
Maximum Humidity 84    
Minimum Humidity 53    
Precipitation  
Precipitation 0.09 in 0.08 in 0.59 in (2012)
Month to date precipitation 0.09 0.17  
Year to date precipitation 4.78 4.87  
Snow  
Snow 1.90 in 0.50 in - ()
Month to date snowfall 1.9 0.9  
Since 1 July snowfall 82.9 49.7  
Snow Depth 1.00 in    
Sea Level Pressure  
Sea Level Pressure 30.20 in    
Wind  
Wind Speed 10 mph (North)    
Max Wind Speed 16 mph    
Max Gust Speed 20 mph    
Visibility 4 miles    
Events Snow    
T = Trace of Precipitation, MM = Missing Value Source: NWS Daily Summary

Daily Weather History Graph

Daily Weather History Graph

Search for Another Location

Airport or City:

Trip Planner

Search our weather history database for the weather conditions in past years. The results will help you decide how hot, cold, wet, or windy it might be!

Date:

Astronomy

Mar. 02, 2014 Rise Set
Actual Time 6:55 AM EST 6:14 PM EST
Civil Twilight 6:27 AM EST 6:42 PM EST
Nautical Twilight 5:55 AM EST 7:14 PM EST
Astronomical Twilight 5:24 AM EST 7:46 PM EST
Moon 7:24 AM EST (3/2) 8:10 PM EST (3/2)
Length of Visible Light 12h 14m
Length of Day
11h 19m
Waxing Crescent, 3% of the Moon is Illuminated
Mar 2
Waxing Crescent
Mar 8
First Quarter
Mar 16
Full
Mar 23
Last Quarter
Mar 30
New

Hourly Weather History & Observations

Time (EST) Temp. Windchill Dew Point Humidity Pressure Visibility Wind Dir Wind Speed Gust Speed Precip Events Conditions
12:32 AM 23.0 °F 10.6 °F 19.4 °F 86% 30.13 in 3.0 mi NNW 13.8 mph - 0.00 in Snow Light Snow
12:51 AM 21.9 °F 8.7 °F 18.0 °F 85% 30.17 in 2.5 mi North 15.0 mph - N/A Snow Light Snow
1:07 AM 21.2 °F 8.3 °F 17.6 °F 86% 30.15 in 1.5 mi NNW 13.8 mph - N/A Snow Light Snow
1:37 AM 21.2 °F 10.1 °F 17.6 °F 86% 30.15 in 0.8 mi NNW 10.4 mph - N/A Snow Light Snow
1:51 AM 21.0 °F 11.4 °F 17.1 °F 85% 30.18 in 0.8 mi North 8.1 mph - N/A Snow Light Snow
2:16 AM 19.4 °F 7.2 °F 15.8 °F 86% 30.15 in 1.5 mi North 11.5 mph - N/A Snow Light Snow
2:35 AM 19.4 °F 9.5 °F 15.8 °F 86% 30.13 in 2.5 mi North 8.1 mph - N/A Snow Light Snow
2:51 AM 19.9 °F 12.1 °F 16.0 °F 85% 30.16 in 1.8 mi North 5.8 mph - N/A Snow Light Snow
3:51 AM 19.0 °F 8.2 °F 15.1 °F 85% 30.18 in 1.0 mi NNW 9.2 mph - N/A Snow Light Snow
4:13 AM 17.6 °F 5.7 °F 14.0 °F 86% 30.14 in 0.8 mi North 10.4 mph - N/A Snow Light Snow
4:31 AM 17.6 °F 6.4 °F 12.2 °F 79% 30.15 in 2.5 mi NNW 9.2 mph - N/A Snow Light Snow
4:44 AM 17.6 °F 6.4 °F 12.2 °F 79% 30.16 in 1.2 mi NNW 9.2 mph - N/A Snow Light Snow
4:51 AM 18.0 °F 6.1 °F 12.9 °F 81% 30.20 in 1.0 mi NNW 10.4 mph - N/A Snow Light Snow
5:02 AM 17.6 °F 5.7 °F 12.2 °F 79% 30.15 in 0.8 mi North 10.4 mph - N/A Snow Light Snow
5:27 AM 17.6 °F 5.7 °F 12.2 °F 79% 30.15 in 1.2 mi North 10.4 mph - N/A Snow Light Snow
5:45 AM 17.6 °F 5.0 °F 12.2 °F 79% 30.15 in 4.0 mi North 11.5 mph - N/A Snow Light Snow
5:51 AM 17.1 °F 4.3 °F 12.0 °F 81% 30.20 in 4.0 mi North 11.5 mph - N/A Snow Light Snow
6:32 AM 17.6 °F 5.7 °F 10.4 °F 73% 30.17 in 3.0 mi North 10.4 mph - N/A Snow Light Snow
6:42 AM 15.8 °F 3.4 °F 10.4 °F 79% 30.17 in 2.5 mi North 10.4 mph - N/A Snow Light Snow
6:51 AM 16.0 °F 6.3 °F 10.9 °F 81% 30.22 in 1.8 mi North 6.9 mph - N/A Snow Light Snow
7:31 AM 15.8 °F 5.1 °F 10.4 °F 79% 30.19 in 1.2 mi North 8.1 mph - N/A Snow Light Snow
7:51 AM 15.1 °F 3.3 °F 10.0 °F 80% 30.24 in 1.5 mi North 9.2 mph - N/A Snow Light Snow
8:37 AM 15.8 °F 4.2 °F 8.6 °F 73% 30.19 in 0.8 mi North 9.2 mph - N/A Snow Light Snow
8:51 AM 14.0 °F 0.5 °F 9.0 °F 80% 30.25 in 0.8 mi NNE 11.5 mph - N/A Snow Light Snow
9:51 AM 15.1 °F 4.2 °F 9.0 °F 77% 30.23 in 1.0 mi North 8.1 mph - N/A Snow Light Snow
10:49 AM 15.8 °F 4.2 °F 6.8 °F 68% 30.17 in 2.0 mi NNE 9.2 mph - N/A Snow Light Snow
10:51 AM 15.1 °F 2.5 °F 8.1 °F 74% 30.23 in 2.0 mi North 10.4 mph - N/A Snow Light Snow
11:51 AM 15.1 °F 4.2 °F 8.1 °F 74% 30.23 in 2.0 mi NNW 8.1 mph - N/A Snow Light Snow
12:28 PM 17.6 °F 5.0 °F 8.6 °F 68% 30.16 in 2.0 mi North 11.5 mph - 0.00 in Snow Light Snow
12:35 PM 17.6 °F 6.4 °F 8.6 °F 68% 30.16 in 9.0 mi North 9.2 mph - 0.00 in Snow Light Snow
12:51 PM 17.1 °F 6.6 °F 8.1 °F 68% 30.21 in 10.0 mi NNW 8.1 mph - N/A   Overcast
1:51 PM 17.1 °F 3.6 °F 8.1 °F 68% 30.20 in 10.0 mi NNW 12.7 mph - N/A   Overcast
2:51 PM 16.0 °F 2.3 °F 7.0 °F 68% 30.21 in 10.0 mi NNW 12.7 mph - N/A   Overcast
3:51 PM 16.0 °F 3.6 °F 6.1 °F 65% 30.22 in 10.0 mi NNW 10.4 mph - N/A   Overcast
4:51 PM 15.1 °F 3.3 °F 1.9 °F 56% 30.22 in 10.0 mi NNW 9.2 mph - N/A   Overcast
5:51 PM 12.9 °F -0.2 °F -0.9 °F 54% 30.23 in 10.0 mi North 10.4 mph - N/A   Mostly Cloudy
6:51 PM 12.0 °F -2.7 °F -2.0 °F 53% 30.24 in 10.0 mi NNW 12.7 mph - N/A   Mostly Cloudy
7:51 PM 10.9 °F -0.8 °F -2.9 °F 54% 30.24 in 10.0 mi North 8.1 mph - N/A   Mostly Cloudy
8:51 PM 10.0 °F -5.2 °F -2.0 °F 58% 30.27 in 10.0 mi NNW 12.7 mph - N/A   Mostly Cloudy
9:51 PM 9.0 °F -4.2 °F -2.0 °F 61% 30.26 in 10.0 mi North 9.2 mph - N/A   Overcast
10:51 PM 9.0 °F -4.2 °F -2.9 °F 59% 30.27 in 10.0 mi North 9.2 mph - N/A   Overcast
11:51 PM 8.1 °F -7.0 °F -2.0 °F 64% 30.28 in 10.0 mi North 11.5 mph - N/A   Overcast